EHI
0 0 0 0 0 0 0 0 0 0 0 0 0 0 0 0 0 0 0 0 0 0 0 0 0 0 0 0 0 0 0 0 0 0 0 0 0 0 0 0 0 0 0 0
0 0 0 0 0 0 0 0 0 0 0 0 0 0 0 0 0 0 0 0 0 0 0 0 0 0 0 0 0 0 0 0 0 0 0 0 0 0 0 0 0 0 0 0
0 0 0 0 0 0 0 0 0 0 0 0 0 0 0 0 0 0 0 0 0 0 0 0 0 0 0 0 0 0 0 0 0 0 0 0 0 0 0 0 0 0 0 0
0 0 0 0 0 0 0 0 0 0 0 0 0 0 0 0 0 0 0 0 0 0 0 0 0 0 0 0 0 0 0 0 0 0 0 0 0 0 0 0 0 0 0 0
0 0 0 0 0 0 0 0 0 0 0 0 0 0 0 0 0 0 0 0 0 0 0 0 0 0 0 0 0 0 0 0 0 0 0 0 0 0 0 0 0 0 0 0
0 0 0 0 0 0 0 0 0 0 0 0 0 0 0 0 0 0 0 0 0 0 0 0 0 0 0 0 0 0 0 0 0 0 0 0 0 0 0 0 0 0 0 0
0 0 0 0 0 0 0 0 0 0 0 0 0 0 0 0 0 0 0 0 0 0 0 0 0 0 0 0 0 0 0 0 0 0 0 0 0 0 0 0 0 0 0 0
0 0 0 0 0 0 0 0 0 0 0 0 0 0 0 0 0 0 0 0 0 0 0 0 0 0 0 0 0 0 0 0 0 0 0 0 0 0 0 0 0 0 0 0
0 0 0 0 0 0 0 0 0 0 0 0 0 0 0 0 0 0 0 0 0 0 0 0 0 0 0 0 0 0 0 0 0 0 0 0 0 0 0 0 0 0 0 0
0 0 0 0 0 0 0 0 0 0 0 0 0 0 0 0 0 0 0 0 0 0 0 0 0 0 0 0 0 0 0 0 0 0 0 0 0 0 0 0 0 0 0 0
0 0 0 0 0 0 0 0 0 0 0 0 0 0 0 0 0 0 0 0 0 0 0 0 0 0 0 0 0 0 0 0 0 0 0 0 0 0 0 0 0 0 0 0
0 0 0 0 0 0 0 0 0 0 0 0 0 0 0 0 0 0 0 0 0 0 0 0 0 0 0 0 0 0 0 0 0 0 0 0 0 0 0 0 0 0 0 0
0 0 0 0 0 0 0 0 0 0 0 0 0 0 0 0 0 0 0 0 0 0 0 0 0 0 0 0 0 0 0 0 0 0 0 0 0 0 0 0 0 0 0 0
0 0 0 0 0 0 0 0 0 0 0 0 0 0 0 0 0 0 0 0 0 0 0 0 0 0 0 0 0 0 0 0 0 0 0 0 0 0 0 0 0 0 0 0
0 0 0 0 0 0 0 0 0 0 0 0 0 0 0 0 0 0 0 0 0 0 0 0 0 0 0 0 0 0 0 0 0 0 0 0 0 0 0 0 0 0 0 0
0 0 0 0 0 0 0 0 0 0 0 0 0 0 0 0 0 0 0 0 0 0 0 0 0 0 0 0 0 0 0 0 0 0 0 0 0 0 0 0 0 0 0 0
0 0 0 0 0 0 0 0 0 0 0 0 0 0 0 0 0 0 0 0 0 0 0 0 0 0 0 0 0 0 0 0 0 0 0 0 0 0 0 0 0 0 0 0
0 0 0 0 0 0 0 0 0 0 0 0 0 0 0 0 0 0 0 0 0 0 0 0 0 0 0 0 0 0 0 0 0 0 0 0 0 0 0 0 0 0 0 0
0 0 0 0 0 0 0 0 0 0 0 0 0 0 0 0 0 0 0 0 0 0 0 0 0 0 0 0 0 0 0 0 0 0 0 0 0 0 0 0 0 0 0 0
0 0 0 0 0 0 0 0 0 0 0 0 0 0 0 0 0 0 0 0 0 0 0 0 0 0 0 0 0 0 0 0 0 0 0 0 0 0 0 0 0 0 0 0
0 0 0 0 0 0 0 0 0 0 0 0 0 0 0 0 0 0 0 0 0 0 0 0 0 0 0 0 0 0 0 0 0 0 0 0 0 0 0 0 0 0 0 0
0 0 0 0 0 0 0 0 0 0 0 0 0 0 0 0 0 0 0 0 0 0 0 0 0 0 0 0 0 0 0 0 0 0 0 0 0 0 0 0 0 0 0 0
0 0 0 0 0 0 0 0 0 0 0 0 0 0 0 0 0 0 0 0 0 0 0 0 0 0 0 0 0 0 0 0 0 0 0 0 0 0 0 0 0 0 0 0
0 0 0 0 0 0 0 0 0 0 0 0 0 0 0 0 0 0 0 0 0 0 0 0 0 0 0 0 0 0 0 0 0 0 0 0 0 0 0 0 0 0 0 0
0 0 0 0 0 0 0 0 0 0 0 0 0 0 0 0 0 0 0 0 0 0 0 0 0 0 0 0 0 0 0 0 0 0 0 0 0 0 0 0 0 0 0 0
0 0 0 0 0 0 0 0 0 0 0 0 0 0 0 0 0 0 0 0 0 0 0 0 0 0 0 0 0 0 0 0 0 0 0 0 0 0 0 0 0 0 0 0
0 0 0 0 0 0 0 0 0 0 0 0 0 0 0 0 0 0 0 0 0 0 0 0 0 0 0 0 0 0 0 0 0 0 0 0 0 0 0 0 0 0 0 0
Wind_Speed
6 7 6 7 7 8 8 10 10 10 10 12 8 7 7 7 6 5 4 3 3 2 2 3 4 3 3 3 2 2 2 2 3 3 3 2 1 1 2 3 3 3 4 5
3 5 6 10 9 7 10 8 9 7 9 7 3 2 3 4 4 4 4 5 5 3 2 2 3 2 2 2 2 2 3 2 3 3 3 3 3 3 4 4 4 4 4 5
4 5 6 9 9 8 5 5 7 8 9 5 4 5 6 6 6 6 5 5 5 5 3 2 1 1 1 1 1 2 3 3 4 4 5 4 4 4 4 3 3 4 4 4
3 2 6 11 7 6 6 6 6 6 5 7 8 6 6 7 7 7 5 4 4 4 4 3 2 1 1 1 0 2 2 3 3 4 5 4 4 4 3 3 3 3 4 4
4 4 7 8 6 6 6 5 5 6 6 7 5 2 4 8 9 8 6 5 4 5 5 4 4 3 2 1 2 3 4 3 3 4 4 3 3 2 2 3 4 3 3 4
4 5 8 10 5 5 5 4 5 6 7 6 7 3 8 8 8 7 6 5 5 4 3 3 4 3 3 3 4 4 3 3 3 3 3 3 2 1 1 3 4 4 5 5
6 7 9 8 6 6 4 10 8 9 8 8 11 12 8 6 8 7 7 6 5 4 2 3 4 5 4 4 4 4 4 4 4 3 2 2 2 1 2 3 4 5 6 5
4 4 9 7 6 8 12 7 10 10 9 9 10 9 5 8 9 9 8 7 6 4 3 3 5 6 6 4 3 4 4 4 3 2 0 1 2 2 3 5 5 5 6 5
7 9 8 5 8 9 8 9 10 10 9 7 8 9 9 9 10 10 10 8 6 5 5 4 5 7 7 5 4 5 5 4 3 2 1 1 2 3 4 4 4 4 4 4
5 7 7 8 8 6 8 10 11 11 9 9 10 11 10 10 9 8 7 7 6 6 7 6 5 6 7 6 5 6 6 4 3 2 3 3 3 3 4 5 5 4 4 3
8 9 9 8 7 6 6 8 9 10 10 11 14 13 13 11 9 8 7 6 7 8 8 8 7 7 6 6 6 6 5 4 3 2 3 4 4 3 4 3 5 6 4 3
11 11 8 9 9 10 7 9 12 12 10 9 13 15 15 12 10 9 9 8 8 8 8 8 8 8 7 7 7 7 5 4 3 2 2 3 4 4 6 4 5 5 5 4
13 12 11 10 10 11 10 10 13 13 12 10 10 13 16 12 12 11 11 10 11 10 9 9 9 9 8 8 8 7 6 5 3 3 3 3 4 4 3 2 3 4 3 3
13 11 10 11 12 11 11 10 12 14 12 12 11 11 14 13 11 13 13 13 12 11 10 10 10 10 9 8 8 8 7 7 6 4 4 4 5 5 5 5 3 2 3 7
14 13 13 11 10 9 8 6 7 11 12 10 11 12 15 15 15 15 14 13 12 11 11 12 12 11 10 9 9 8 7 5 5 5 5 5 5 5 5 6 5 4 3 5
11 10 10 9 9 7 4 3 6 10 12 12 12 14 16 18 17 15 13 14 14 14 13 13 13 13 12 12 11 8 7 11 8 5 4 4 5 5 6 6 5 5 5 6
9 9 9 8 8 7 5 5 7 9 11 12 15 16 16 15 15 14 14 15 15 15 15 15 15 14 12 13 12 8 7 8 11 6 5 5 5 5 6 6 6 6 7 8
6 6 5 4 4 6 6 7 7 8 11 14 15 14 16 17 18 18 17 14 12 12 14 16 15 14 14 14 12 9 7 7 6 6 6 5 5 6 6 7 7 7 5 6
17 17 15 14 14 13 10 6 2 2 4 6 9 12 15 18 19 18 16 15 16 16 16 16 19 16 14 15 14 9 9 8 7 7 7 8 7 6 7 7 7 7 6 5
11 10 10 11 13 16 18 17 11 6 3 1 2 6 9 12 14 15 17 18 17 16 16 17 17 15 14 15 17 10 10 10 10 8 7 7 7 8 8 8 8 7 7 7
7 6 6 5 6 8 11 16 16 13 9 5 2 4 7 9 11 14 15 16 17 15 15 19 15 13 13 13 17 11 10 10 9 9 9 8 8 9 9 9 8 7 7 7
8 7 6 5 3 2 3 6 11 15 13 9 7 5 5 6 9 12 16 16 15 17 16 13 13 15 17 17 12 11 10 10 9 9 9 9 9 9 9 9 8 8 7 8
7 7 7 7 7 8 9 11 12 13 12 11 9 8 8 8 6 8 11 13 13 18 17 13 15 20 21 15 11 10 10 10 10 10 9 9 10 10 10 11 9 8 8 8
8 8 7 7 8 9 11 13 13 11 11 11 10 9 8 7 6 7 8 13 19 20 16 15 20 21 20 13 11 11 12 11 11 10 9 8 8 8 9 9 8 8 9 10
12 11 10 9 9 9 11 11 10 9 9 8 9 9 8 6 5 5 6 8 15 19 16 18 22 23 18 13 13 13 13 12 12 11 9 8 7 7 7 8 9 10 9 9
9 8 8 8 8 9 9 8 7 6 6 7 7 6 5 5 5 5 6 8 13 18 16 14 17 19 15 14 14 14 13 13 14 12 10 9 9 8 8 9 11 10 8 7
7 6 6 8 8 8 8 7 7 7 6 6 7 6 5 5 4 4 5 7 9 13 13 13 14 14 13 13 12 12 12 11 11 11 10 9 7 8 9 11 9 8 6 6
Wind_Direction
225 251 272 284 277 200 188 192 197 233 242 256 257 250 251 236 220 212 191 156 138 147 156 132 122 119 102 73 58 51 67 103 151 174 175 181 208 151 125 115 97 73 56 38
279 275 294 293 283 230 207 202 214 236 257 246 238 246 235 206 193 197 192 169 147 126 120 127 134 133 101 70 59 63 67 67 90 98 95 87 100 110 105 103 102 79 66 52
248 263 303 278 246 211 201 199 196 227 245 225 223 230 225 219 216 215 215 202 173 157 151 151 169 155 131 346 28 76 90 87 92 94 89 84 84 81 77 82 95 87 77 63
215 288 241 245 251 203 199 215 208 218 226 207 216 221 226 216 210 216 211 193 157 149 162 183 206 226 247 313 28 112 123 115 115 104 97 91 84 75 60 55 69 73 75 70
168 217 263 273 245 200 191 227 211 203 218 221 205 152 263 224 203 199 191 169 161 167 180 192 201 208 212 233 133 122 125 119 122 128 125 122 112 93 70 75 77 76 69 60
169 205 239 250 240 153 120 254 226 197 216 208 144 173 250 222 197 189 171 157 167 176 179 192 204 178 154 140 128 133 137 125 118 129 142 158 171 154 88 95 106 99 76 62
205 224 253 251 181 137 176 238 216 209 214 187 185 209 228 187 173 172 169 179 185 185 193 202 172 138 131 127 139 150 138 125 117 110 150 191 189 167 119 111 111 102 90 73
212 228 258 228 185 191 214 206 194 206 213 202 212 216 190 164 163 165 172 186 189 182 195 178 144 131 135 147 151 136 130 130 122 90 90 176 162 141 119 121 116 108 99 77
202 220 248 249 231 226 184 182 197 202 209 195 182 180 173 170 171 177 182 188 182 174 182 178 154 146 156 174 153 129 121 122 123 95 54 99 132 126 122 125 122 118 113 103
275 272 283 281 267 248 206 199 193 192 194 173 176 179 176 177 183 188 188 184 172 165 173 181 176 169 170 169 152 135 136 140 136 106 75 68 76 106 127 135 130 129 127 121
266 270 283 283 280 282 257 219 196 195 192 184 178 180 181 182 187 188 183 175 164 167 175 179 172 171 172 165 150 148 154 161 158 130 110 91 71 67 103 133 157 152 155 142
251 245 238 252 260 272 268 224 206 196 197 185 178 181 181 183 182 179 176 169 167 168 171 173 168 173 180 173 161 159 167 178 181 163 138 128 113 77 52 85 117 127 132 135
239 239 232 238 248 257 256 237 214 198 189 183 177 173 174 174 176 176 175 170 172 174 175 171 170 178 187 178 169 170 177 185 192 190 178 167 155 145 135 70 63 83 109 148
236 243 255 253 249 253 257 251 217 201 191 179 173 169 172 169 170 174 178 180 178 174 172 172 174 185 189 179 176 183 187 192 190 196 196 192 184 177 170 167 174 218 231 231
244 238 238 246 255 257 252 247 209 198 189 180 174 171 174 176 179 183 182 179 175 174 176 177 183 193 191 185 187 193 194 197 195 195 202 202 194 186 186 185 182 179 192 236
251 247 242 242 241 241 240 220 203 206 197 187 183 184 185 184 184 184 180 177 176 183 184 184 192 197 192 191 195 198 203 208 194 194 200 194 183 179 184 185 188 185 190 206
266 262 254 240 226 220 216 214 209 211 206 198 197 194 187 183 183 185 187 186 185 186 186 188 196 199 195 196 197 200 203 209 204 190 192 187 174 171 172 172 180 189 200 205
342 329 316 288 270 255 243 234 223 217 215 209 204 194 186 185 189 192 192 189 185 186 190 193 195 197 199 201 201 203 203 204 193 188 192 191 180 174 175 179 183 186 200 213
25 32 30 29 19 6 354 343 321 217 215 212 203 196 196 196 196 194 190 187 189 195 200 198 194 192 196 201 198 201 201 204 203 200 193 191 187 182 186 190 192 191 189 190
354 6 15 23 25 16 358 344 343 352 0 24 194 200 206 208 204 198 193 196 201 201 198 196 195 196 197 198 194 194 194 196 200 203 197 188 188 193 197 199 198 196 192 192
325 330 337 351 19 24 354 334 325 316 308 302 268 231 220 217 210 205 203 209 212 204 198 194 195 197 198 197 196 195 192 189 192 199 201 200 198 200 204 207 206 203 198 197
310 294 282 277 275 250 243 270 286 293 297 295 284 270 251 235 222 214 213 215 213 204 202 201 199 199 197 196 197 196 197 195 193 195 201 205 204 205 209 212 212 210 203 198
320 318 308 285 263 252 247 244 249 258 267 269 262 255 250 243 232 224 225 221 214 203 202 203 198 196 195 195 193 191 197 203 203 199 198 199 203 207 213 217 216 210 201 197
292 293 294 288 272 260 257 256 254 256 260 263 257 249 245 246 248 243 239 227 217 205 201 196 192 192 193 198 193 193 202 210 212 208 202 198 197 201 207 210 208 203 197 192
289 289 287 286 282 277 272 265 260 259 264 266 262 256 247 230 232 258 260 237 209 193 193 188 186 189 194 201 198 200 206 208 211 210 206 203 202 199 196 194 193 191 188 185
282 286 288 286 285 289 284 271 258 257 260 266 265 256 246 238 246 266 269 248 214 198 193 189 192 194 200 200 200 202 205 205 207 208 207 206 208 199 190 189 188 185 181 180
289 290 295 296 294 290 285 276 266 260 253 253 260 258 247 237 238 256 270 256 224 206 200 193 189 191 195 197 199 202 203 202 202 202 201 203 200 194 192 187 181 172 166 166